TimeCST,TemperatureF,Dew PointF,Humidity,Sea Level PressureIn,VisibilityMPH,Wind Direction,Wind SpeedMPH,Gust SpeedMPH,PrecipitationIn,Events,Conditions,WindDirDegrees,DateUTC
12:15 AM,43.9,28.4,55,30.34,10.0,Calm,Calm,-,N/A,,Clear,0,2012-12-05 06:15:00
12:35 AM,41.2,28.4,60,30.34,10.0,Calm,Calm,-,N/A,,Clear,0,2012-12-05 06:35:00
12:55 AM,40.8,27.0,58,30.32,10.0,Calm,Calm,-,N/A,,Clear,0,2012-12-05 06:55:00
1:15 AM,39.9,26.6,59,30.33,10.0,Calm,Calm,-,N/A,,Clear,0,2012-12-05 07:15:00
1:55 AM,39.4,26.4,60,30.32,10.0,Calm,Calm,-,N/A,,Clear,0,2012-12-05 07:55:00
2:15 AM,38.8,26.4,61,30.32,10.0,Calm,Calm,-,N/A,,Clear,0,2012-12-05 08:15:00
2:35 AM,38.3,24.8,58,30.32,10.0,Calm,Calm,-,N/A,,Clear,0,2012-12-05 08:35:00
2:55 AM,38.3,25.9,61,30.32,10.0,Calm,Calm,-,N/A,,Clear,0,2012-12-05 08:55:00
3:15 AM,37.8,25.3,61,30.32,10.0,Calm,Calm,-,N/A,,Clear,0,2012-12-05 09:15:00
3:35 AM,37.4,25.5,62,30.31,10.0,Calm,Calm,-,N/A,,Clear,0,2012-12-05 09:35:00
3:55 AM,36.9,24.6,61,30.31,10.0,Calm,Calm,-,N/A,,Clear,0,2012-12-05 09:55:00
4:15 AM,37.4,25.9,63,30.30,10.0,Calm,Calm,-,N/A,,Clear,0,2012-12-05 10:15:00
4:35 AM,37.6,28.4,69,30.30,10.0,Calm,Calm,-,N/A,,Clear,0,2012-12-05 10:35:00
4:55 AM,37.6,26.8,65,30.30,10.0,Calm,Calm,-,N/A,,Clear,0,2012-12-05 10:55:00
5:15 AM,38.8,27.5,64,30.29,10.0,Calm,Calm,-,N/A,,Clear,0,2012-12-05 11:15:00
5:35 AM,36.5,24.8,63,30.29,10.0,Calm,Calm,-,N/A,,Clear,0,2012-12-05 11:35:00
5:55 AM,36.7,27.3,69,30.29,10.0,Calm,Calm,-,N/A,,Clear,0,2012-12-05 11:55:00
6:15 AM,38.5,24.8,58,30.29,10.0,South,3.5,-,N/A,,Clear,180,2012-12-05 12:15:00
6:35 AM,38.3,24.4,57,30.29,10.0,South,4.6,-,N/A,,Clear,180,2012-12-05 12:35:00
6:55 AM,39.2,23.9,54,30.29,10.0,SSW,5.8,-,N/A,,Clear,200,2012-12-05 12:55:00
8:35 AM,47.3,23.7,40,30.30,10.0,South,6.9,-,N/A,,Clear,180,2012-12-05 14:35:00
8:55 AM,48.7,22.6,36,30.30,10.0,South,6.9,-,N/A,,Clear,170,2012-12-05 14:55:00
9:15 AM,50.0,22.1,33,30.30,10.0,South,6.9,-,N/A,,Clear,180,2012-12-05 15:15:00
9:35 AM,51.8,21.2,30,30.30,10.0,South,9.2,-,N/A,,Clear,180,2012-12-05 15:35:00
9:55 AM,53.2,21.4,29,30.30,10.0,South,8.1,-,N/A,,Clear,180,2012-12-05 15:55:00
10:15 AM,54.5,20.8,27,30.30,10.0,South,13.8,-,N/A,,Clear,170,2012-12-05 16:15:00
10:35 AM,56.7,21.6,26,30.29,10.0,South,15.0,18.4,N/A,,Clear,190,2012-12-05 16:35:00
10:55 AM,56.7,22.1,26,30.28,10.0,South,11.5,-,N/A,,Clear,190,2012-12-05 16:55:00
11:15 AM,58.3,23.4,26,30.27,10.0,SSW,10.4,-,N/A,,Clear,200,2012-12-05 17:15:00
11:35 AM,59.9,24.3,26,30.25,10.0,SSW,9.2,16.1,N/A,,Clear,200,2012-12-05 17:35:00
11:55 AM,61.3,25.9,26,30.24,10.0,SSW,10.4,17.3,N/A,,Clear,200,2012-12-05 17:55:00
12:15 PM,61.7,26.1,26,30.23,10.0,SSW,12.7,16.1,N/A,,Clear,210,2012-12-05 18:15:00
12:35 PM,62.6,26.4,25,30.21,10.0,SSW,12.7,16.1,N/A,,Clear,200,2012-12-05 18:35:00
12:55 PM,64.0,27.9,26,30.19,10.0,South,11.5,-,N/A,,Clear,190,2012-12-05 18:55:00
1:15 PM,64.4,28.0,25,30.18,10.0,SSW,13.8,17.3,N/A,,Clear,210,2012-12-05 19:15:00
1:35 PM,65.3,28.2,25,30.15,10.0,South,11.5,-,N/A,,Clear,190,2012-12-05 19:35:00
1:55 PM,66.4,28.6,24,30.14,10.0,SSW,12.7,16.1,N/A,,Clear,200,2012-12-05 19:55:00
2:15 PM,67.1,29.3,24,30.13,10.0,SSW,10.4,16.1,N/A,,Clear,200,2012-12-05 20:15:00
2:35 PM,66.6,29.3,25,30.12,10.0,SSW,8.1,17.3,N/A,,Clear,210,2012-12-05 20:35:00
2:55 PM,67.6,29.1,24,30.10,10.0,SSW,10.4,16.1,N/A,,Clear,200,2012-12-05 20:55:00
3:15 PM,67.1,29.8,25,30.09,10.0,SSW,11.5,-,N/A,,Clear,210,2012-12-05 21:15:00
3:35 PM,67.6,30.0,25,30.08,10.0,SSW,11.5,-,N/A,,Clear,200,2012-12-05 21:35:00
3:55 PM,68.0,30.6,25,30.07,10.0,SSW,11.5,-,N/A,,Clear,200,2012-12-05 21:55:00
4:15 PM,68.0,30.7,25,30.07,10.0,South,9.2,-,N/A,,Clear,190,2012-12-05 22:15:00
4:35 PM,67.5,30.9,26,30.07,10.0,SW,10.4,18.4,N/A,,Clear,220,2012-12-05 22:35:00
4:55 PM,66.9,30.9,26,30.06,10.0,South,10.4,-,N/A,,Clear,190,2012-12-05 22:55:00
5:15 PM,65.7,30.7,27,30.06,10.0,SSW,9.2,-,N/A,,Clear,210,2012-12-05 23:15:00
5:35 PM,63.5,30.7,29,30.06,10.0,SSW,8.1,-,N/A,,Clear,200,2012-12-05 23:35:00
5:55 PM,60.6,30.2,32,30.05,10.0,SSW,6.9,-,N/A,,Clear,200,2012-12-05 23:55:00
6:15 PM,58.6,29.7,33,30.05,10.0,South,5.8,-,N/A,,Clear,190,2012-12-06 00:15:00
6:35 PM,57.9,29.7,34,30.04,10.0,SSW,8.1,-,N/A,,Clear,200,2012-12-06 00:35:00
6:55 PM,56.3,29.3,36,30.04,10.0,SSW,6.9,-,N/A,,Clear,200,2012-12-06 00:55:00
7:15 PM,56.7,29.3,35,30.04,10.0,South,4.6,-,N/A,,Clear,190,2012-12-06 01:15:00
7:35 PM,54.9,29.3,38,30.03,10.0,SSW,6.9,-,N/A,,Clear,200,2012-12-06 01:35:00
7:55 PM,55.2,29.5,37,30.04,10.0,South,5.8,-,N/A,,Clear,190,2012-12-06 01:55:00
8:15 PM,54.7,29.5,38,30.03,10.0,South,6.9,-,N/A,,Clear,190,2012-12-06 02:15:00
8:35 PM,55.8,29.7,37,30.03,10.0,South,6.9,-,N/A,,Clear,190,2012-12-06 02:35:00
8:55 PM,54.0,29.3,39,30.03,10.0,South,6.9,-,N/A,,Clear,180,2012-12-06 02:55:00
9:15 PM,53.6,29.5,40,30.03,10.0,South,9.2,-,N/A,,Clear,190,2012-12-06 03:15:00
9:35 PM,53.4,29.3,40,30.03,10.0,South,8.1,-,N/A,,Clear,180,2012-12-06 03:35:00
9:55 PM,52.7,29.8,42,30.01,10.0,South,9.2,-,N/A,,Clear,190,2012-12-06 03:55:00
10:15 PM,52.5,29.8,42,30.01,10.0,SSW,11.5,-,N/A,,Clear,200,2012-12-06 04:15:00
10:35 PM,52.7,30.0,42,30.00,10.0,SSW,10.4,-,N/A,,Clear,200,2012-12-06 04:35:00
10:55 PM,52.2,30.6,44,30.00,10.0,SSW,9.2,-,N/A,,Clear,200,2012-12-06 04:55:00
11:15 PM,51.6,30.7,45,30.00,10.0,SSW,10.4,-,N/A,,Clear,200,2012-12-06 05:15:00
11:35 PM,52.2,31.6,46,29.99,10.0,SSW,11.5,16.1,N/A,,Clear,200,2012-12-06 05:35:00
11:55 PM,51.3,31.8,47,29.98,10.0,SSW,12.7,-,N/A,,Clear,200,2012-12-06 05:55:00